Zurück zum Katalog

STARLINK-32461

AktivKommunikationVLEO
NORAD 61701·PAYLOAD·🇺🇸 United States

Gestartet Oct 30, 2024 von Vandenberg Space Force Base

Loading…

Nächste Überflüge (nächste 24 Stunden)

TLE

AktuellSource: CelesTrak SupGP

Epoche: Sep 14, 2026, 20:57 UTC

1 61701C 24195Q   26257.87340278  .00000459  00000+0  13551-4 0  2570
2 61701  53.1597 352.3385 0001328  71.0534  40.1639 15.34387352    15

Verfolge STARLINK-32461 in Echtzeit mit AllMySat

Download on the App Store